Time,TemperatureF,DewpointF,PressureIn,WindDirection,WindDirectionDegrees,WindSpeedMPH,WindSpeedGustMPH,Humidity,HourlyPrecipIn,Conditions,Clouds,dailyrainin,SoftwareType,DateUTC
2013-04-05 00:00:00,69.8,68.3,30.12,SW,235,0.0,0.0,95,0.00,,---,1.46,VWS V14.01,2013-04-05 04:00:00,
2013-04-05 00:01:00,69.8,68.3,30.12,SW,235,0.0,0.0,95,0.00,,---,0.00,VWS V14.01,2013-04-05 04:01:00,
2013-04-05 00:06:00,69.6,68.1,30.12,WSW,240,2.2,3.1,95,0.00,,---,0.00,VWS V14.01,2013-04-05 04:06:00,
2013-04-05 00:12:00,69.6,68.1,30.12,WSW,240,0.0,0.0,95,0.00,,---,0.00,VWS V14.01,2013-04-05 04:12:00,
2013-04-05 00:17:00,69.6,68.1,30.12,SW,233,4.0,4.0,95,0.04,,---,0.04,VWS V14.01,2013-04-05 04:17:00,
2013-04-05 00:22:00,69.6,68.1,30.12,SE,127,3.1,4.9,95,0.04,,---,0.04,VWS V14.01,2013-04-05 04:22:00,
2013-04-05 00:27:00,69.6,68.1,30.12,SE,142,0.0,0.0,95,0.04,,---,0.04,VWS V14.01,2013-04-05 04:27:00,
2013-04-05 00:32:00,69.6,68.1,30.12,SE,142,0.0,0.0,95,0.04,,---,0.04,VWS V14.01,2013-04-05 04:32:00,
2013-04-05 00:37:00,69.8,68.3,30.12,WNW,282,2.7,2.7,95,0.04,,---,0.04,VWS V14.01,2013-04-05 04:37:00,
2013-04-05 00:42:00,69.8,68.3,30.12,WNW,296,3.1,3.1,95,0.04,,---,0.04,VWS V14.01,2013-04-05 04:42:00,
2013-04-05 00:47:00,69.8,68.3,30.12,WNW,285,5.4,5.4,95,0.04,,---,0.04,VWS V14.01,2013-04-05 04:47:00,
2013-04-05 00:52:00,69.3,67.8,30.12,WSW,237,4.0,4.0,95,0.04,,---,0.04,VWS V14.01,2013-04-05 04:52:00,
2013-04-05 00:58:00,68.9,67.4,30.12,West,267,3.6,5.4,95,0.04,,---,0.04,VWS V14.01,2013-04-05 04:58:00,
2013-04-05 01:03:00,68.9,67.4,30.12,WNW,297,3.1,4.0,95,0.04,,---,0.04,VWS V14.01,2013-04-05 05:03:00,
2013-04-05 01:08:00,68.9,67.4,30.12,NW,307,2.7,4.0,95,0.04,,---,0.04,VWS V14.01,2013-04-05 05:08:00,
2013-04-05 01:14:00,69.1,67.6,30.12,West,267,3.1,3.6,95,0.04,,---,0.04,VWS V14.01,2013-04-05 05:14:00,
2013-04-05 01:19:00,69.1,67.6,30.12,WSW,245,2.7,4.0,95,0.00,,---,0.04,VWS V14.01,2013-04-05 05:19:00,
2013-04-05 01:24:00,69.1,67.6,30.09,West,279,0.0,0.0,95,0.00,,---,0.04,VWS V14.01,2013-04-05 05:24:00,
2013-04-05 01:29:00,69.1,67.6,30.09,NW,313,0.0,3.6,95,0.00,,---,0.04,VWS V14.01,2013-04-05 05:29:00,
2013-04-05 01:34:00,69.1,67.6,30.09,North,353,0.0,0.0,95,0.00,,---,0.04,VWS V14.01,2013-04-05 05:34:00,
2013-04-05 01:40:00,68.9,67.4,30.09,ENE,61,0.0,0.0,95,0.00,,---,0.04,VWS V14.01,2013-04-05 05:40:00,
2013-04-05 01:45:00,68.9,67.4,30.09,ENE,61,0.0,0.0,95,0.00,,---,0.04,VWS V14.01,2013-04-05 05:45:00,
2013-04-05 01:50:00,68.7,67.2,30.09,WSW,251,13.2,13.2,95,0.00,,---,0.04,VWS V14.01,2013-04-05 05:50:00,
2013-04-05 01:55:00,68.0,66.5,30.12,West,281,4.0,6.3,95,0.12,,---,0.16,VWS V14.01,2013-04-05 05:55:00,
2013-04-05 02:00:00,67.5,66.0,30.12,SW,232,0.0,0.0,95,0.16,,---,0.20,VWS V14.01,2013-04-05 06:00:00,
2013-04-05 02:05:00,67.1,65.6,30.12,SW,236,0.0,0.0,95,0.16,,---,0.20,VWS V14.01,2013-04-05 06:05:00,
2013-04-05 02:11:00,66.6,65.1,30.09,WNW,292,2.2,3.1,95,0.16,,---,0.20,VWS V14.01,2013-04-05 06:11:00,
2013-04-05 02:16:00,66.4,64.9,30.09,West,281,2.2,2.7,95,0.16,,---,0.20,VWS V14.01,2013-04-05 06:16:00,
2013-04-05 02:21:00,66.4,64.9,30.06,WNW,291,2.7,2.7,95,0.16,,---,0.20,VWS V14.01,2013-04-05 06:21:00,
2013-04-05 02:26:00,66.2,64.7,30.06,West,271,0.0,4.0,95,0.16,,---,0.20,VWS V14.01,2013-04-05 06:26:00,
2013-04-05 02:32:00,66.4,64.9,30.06,WSW,246,3.1,4.0,95,0.16,,---,0.20,VWS V14.01,2013-04-05 06:32:00,
2013-04-05 02:37:00,66.4,64.9,30.06,WSW,245,2.2,5.4,95,0.16,,---,0.20,VWS V14.01,2013-04-05 06:37:00,
2013-04-05 02:42:00,66.4,64.9,30.06,WSW,248,3.1,3.6,95,0.20,,---,0.24,VWS V14.01,2013-04-05 06:42:00,
2013-04-05 02:47:00,66.6,65.1,30.06,WSW,246,4.0,6.3,95,0.20,,---,0.24,VWS V14.01,2013-04-05 06:47:00,
2013-04-05 02:52:00,66.4,64.9,30.06,WNW,282,2.7,2.7,95,0.16,,---,0.24,VWS V14.01,2013-04-05 06:52:00,
2013-04-05 02:58:00,66.4,64.9,30.06,West,260,5.4,5.4,95,0.04,,---,0.24,VWS V14.01,2013-04-05 06:58:00,
2013-04-05 03:03:00,66.0,64.8,30.06,WSW,248,3.6,5.4,96,0.04,,---,0.24,VWS V14.01,2013-04-05 07:03:00,
2013-04-05 03:08:00,65.7,64.2,30.06,SW,225,4.5,4.5,95,0.04,,---,0.24,VWS V14.01,2013-04-05 07:08:00,
2013-04-05 03:13:00,65.5,64.0,30.06,West,266,0.0,5.4,95,0.04,,---,0.24,VWS V14.01,2013-04-05 07:13:00,
2013-04-05 03:18:00,65.5,64.0,30.06,SW,223,3.1,4.9,95,0.04,,---,0.24,VWS V14.01,2013-04-05 07:18:00,
2013-04-05 03:24:00,65.5,64.0,30.09,WSW,250,0.0,0.0,95,0.08,,---,0.28,VWS V14.01,2013-04-05 07:24:00,
2013-04-05 03:29:00,65.5,64.0,30.09,SE,139,0.0,2.7,95,0.08,,---,0.28,VWS V14.01,2013-04-05 07:29:00,
2013-04-05 03:34:00,65.5,64.3,30.09,SE,139,0.0,0.0,96,0.08,,---,0.28,VWS V14.01,2013-04-05 07:34:00,
2013-04-05 03:39:00,65.5,64.0,30.09,SE,139,0.0,0.0,95,0.08,,---,0.28,VWS V14.01,2013-04-05 07:39:00,
2013-04-05 03:44:00,65.5,64.0,30.09,SE,139,2.2,2.2,95,0.04,,---,0.28,VWS V14.01,2013-04-05 07:44:00,
2013-04-05 03:50:00,65.5,64.0,30.09,SE,139,0.0,0.0,95,0.04,,---,0.28,VWS V14.01,2013-04-05 07:50:00,
2013-04-05 03:55:00,65.5,64.0,30.09,SE,139,0.0,0.0,95,0.04,,---,0.28,VWS V14.01,2013-04-05 07:55:00,
2013-04-05 04:00:00,65.5,64.0,30.09,SE,139,0.0,0.0,95,0.04,,---,0.28,VWS V14.01,2013-04-05 08:00:00,
2013-04-05 04:05:00,65.5,64.0,30.09,SE,139,0.0,0.0,95,0.04,,---,0.28,VWS V14.01,2013-04-05 08:05:00,
2013-04-05 04:11:00,65.7,64.2,30.09,SE,139,0.0,0.0,95,0.04,,---,0.28,VWS V14.01,2013-04-05 08:11:00,
2013-04-05 04:16:00,65.7,64.2,30.09,SE,139,0.0,0.0,95,0.04,,---,0.28,VWS V14.01,2013-04-05 08:16:00,
2013-04-05 04:21:00,65.8,64.4,30.09,South,188,0.0,0.0,95,0.04,,---,0.28,VWS V14.01,2013-04-05 08:21:00,
2013-04-05 04:27:00,65.7,64.2,30.09,SSW,195,0.0,0.0,95,0.00,,---,0.28,VWS V14.01,2013-04-05 08:27:00,
2013-04-05 04:32:00,65.5,64.0,30.09,SSW,196,0.0,0.0,95,0.04,,---,0.31,VWS V14.01,2013-04-05 08:32:00,
2013-04-05 04:37:00,65.5,64.0,30.09,SSE,166,0.0,3.1,95,0.04,,---,0.31,VWS V14.01,2013-04-05 08:37:00,
2013-04-05 04:42:00,65.5,64.0,30.09,SSE,166,0.0,0.0,95,0.04,,---,0.31,VWS V14.01,2013-04-05 08:42:00,
2013-04-05 04:47:00,65.7,64.2,30.09,SW,234,0.0,0.0,95,0.08,,---,0.35,VWS V14.01,2013-04-05 08:47:00,
2013-04-05 04:52:00,65.5,64.0,30.09,SSW,203,0.0,0.0,95,0.08,,---,0.35,VWS V14.01,2013-04-05 08:52:00,
2013-04-05 04:58:00,65.5,64.0,30.09,SW,232,0.0,0.0,95,0.08,,---,0.35,VWS V14.01,2013-04-05 08:58:00,
2013-04-05 05:03:00,65.3,63.8,30.09,South,185,0.0,0.0,95,0.08,,---,0.35,VWS V14.01,2013-04-05 09:03:00,
2013-04-05 05:08:00,65.1,63.7,30.09,South,185,0.0,0.0,95,0.08,,---,0.35,VWS V14.01,2013-04-05 09:08:00,
2013-04-05 05:13:00,65.1,63.7,30.09,South,181,0.0,0.0,95,0.08,,---,0.35,VWS V14.01,2013-04-05 09:13:00,
2013-04-05 05:18:00,65.1,63.7,30.09,ESE,119,0.0,0.0,95,0.12,,---,0.39,VWS V14.01,2013-04-05 09:18:00,
2013-04-05 05:24:00,65.1,63.7,30.06,SE,124,2.7,3.1,95,0.12,,---,0.39,VWS V14.01,2013-04-05 09:24:00,
2013-04-05 05:29:00,65.3,63.8,30.06,ESE,113,5.8,6.3,95,0.16,,---,0.43,VWS V14.01,2013-04-05 09:29:00,
2013-04-05 05:34:00,65.3,63.8,30.06,SE,127,5.4,5.4,95,0.12,,---,0.43,VWS V14.01,2013-04-05 09:34:00,
2013-04-05 05:39:00,65.1,63.7,30.03,ENE,76,3.1,6.7,95,0.12,,---,0.43,VWS V14.01,2013-04-05 09:39:00,
2013-04-05 05:45:00,65.3,63.8,30.03,ESE,111,5.8,5.8,95,0.08,,---,0.43,VWS V14.01,2013-04-05 09:45:00,
2013-04-05 05:50:00,65.3,63.8,30.03,SE,136,5.8,6.3,95,0.08,,---,0.43,VWS V14.01,2013-04-05 09:50:00,
2013-04-05 05:55:00,65.3,63.8,30.03,SE,134,7.6,10.5,95,0.08,,---,0.43,VWS V14.01,2013-04-05 09:55:00,
2013-04-05 06:00:00,65.3,63.8,30.03,SSE,163,6.7,6.7,95,0.08,,---,0.43,VWS V14.01,2013-04-05 10:00:00,
2013-04-05 06:05:00,65.3,63.8,30.03,SSE,153,4.0,6.7,95,0.08,,---,0.43,VWS V14.01,2013-04-05 10:05:00,
2013-04-05 06:10:00,65.5,64.0,30.03,SSE,151,8.3,10.5,95,0.08,,---,0.43,VWS V14.01,2013-04-05 10:10:00,
2013-04-05 06:16:00,65.3,63.8,30.03,South,173,3.1,5.8,95,0.04,,---,0.43,VWS V14.01,2013-04-05 10:16:00,
2013-04-05 06:21:00,65.3,63.8,30.06,ESE,103,4.0,6.3,95,0.04,,---,0.43,VWS V14.01,2013-04-05 10:21:00,
2013-04-05 06:26:00,65.3,63.8,30.06,SSE,153,2.7,9.6,95,0.04,,---,0.43,VWS V14.01,2013-04-05 10:26:00,
2013-04-05 06:32:00,65.1,63.7,30.06,South,179,2.7,4.0,95,0.00,,---,0.43,VWS V14.01,2013-04-05 10:32:00,
2013-04-05 06:37:00,65.1,63.7,30.03,SSE,156,4.0,5.8,95,0.00,,---,0.43,VWS V14.01,2013-04-05 10:37:00,
2013-04-05 06:42:00,65.1,63.7,30.03,SE,128,4.0,7.6,95,0.04,,---,0.47,VWS V14.01,2013-04-05 10:42:00,
2013-04-05 06:47:00,64.9,63.2,30.03,SSE,158,3.1,3.6,94,0.04,,---,0.47,VWS V14.01,2013-04-05 10:47:00,
2013-04-05 06:52:00,65.1,63.3,30.03,SE,131,3.1,5.4,94,0.04,,---,0.47,VWS V14.01,2013-04-05 10:52:00,
2013-04-05 06:58:00,65.1,63.3,30.03,SSE,153,4.0,4.0,94,0.04,,---,0.47,VWS V14.01,2013-04-05 10:58:00,
2013-04-05 07:03:00,65.1,63.3,30.03,SSE,163,5.4,5.4,94,0.04,,---,0.47,VWS V14.01,2013-04-05 11:03:00,
2013-04-05 07:08:00,65.3,63.5,30.03,SE,138,6.3,8.7,94,0.04,,---,0.47,VWS V14.01,2013-04-05 11:08:00,
2013-04-05 07:14:00,65.1,63.3,30.03,SE,140,5.8,5.8,94,0.04,,---,0.47,VWS V14.01,2013-04-05 11:14:00,
2013-04-05 07:19:00,65.1,63.3,30.03,ESE,120,5.8,8.7,94,0.04,,---,0.47,VWS V14.01,2013-04-05 11:19:00,
2013-04-05 07:24:00,65.1,63.3,30.00,SE,138,7.6,7.6,94,0.04,,---,0.47,VWS V14.01,2013-04-05 11:24:00,
2013-04-05 07:29:00,65.1,63.0,30.00,SSE,157,6.3,6.3,93,0.08,,---,0.51,VWS V14.01,2013-04-05 11:29:00,
2013-04-05 07:35:00,65.1,63.0,30.00,SE,146,8.3,8.3,93,0.08,,---,0.51,VWS V14.01,2013-04-05 11:35:00,
2013-04-05 07:40:00,65.1,62.7,30.03,SSW,192,0.0,3.1,92,0.04,,---,0.51,VWS V14.01,2013-04-05 11:40:00,
2013-04-05 07:45:00,65.1,62.7,30.03,SSE,163,0.0,2.7,92,0.04,,---,0.51,VWS V14.01,2013-04-05 11:45:00,
2013-04-05 07:50:00,65.1,62.7,30.03,SSE,148,3.6,5.4,92,0.04,,---,0.51,VWS V14.01,2013-04-05 11:50:00,
2013-04-05 07:55:00,65.3,62.9,30.00,SSE,150,2.7,3.6,92,0.04,,---,0.51,VWS V14.01,2013-04-05 11:55:00,
2013-04-05 08:00:00,65.5,63.1,30.00,SE,131,5.8,6.3,92,0.04,,---,0.51,VWS V14.01,2013-04-05 12:00:00,
2013-04-05 08:05:00,65.7,63.3,30.00,SSE,156,3.6,5.4,92,0.04,,---,0.51,VWS V14.01,2013-04-05 12:05:00,
2013-04-05 08:10:00,65.8,62.8,29.97,SSE,159,5.4,5.4,90,0.04,,---,0.51,VWS V14.01,2013-04-05 12:10:00,
2013-04-05 08:15:00,66.2,60.2,29.97,SE,140,6.3,8.3,81,0.04,,---,0.51,VWS V14.01,2013-04-05 12:15:00,
2013-04-05 08:20:00,66.7,59.7,29.97,SSE,151,4.9,4.9,78,0.04,,---,0.51,VWS V14.01,2013-04-05 12:20:00,
2013-04-05 08:26:00,66.9,58.8,30.00,SSW,193,3.1,3.6,75,0.04,,---,0.51,VWS V14.01,2013-04-05 12:26:00,
2013-04-05 08:31:00,67.3,57.6,30.00,South,184,3.1,3.1,71,0.00,,---,0.51,VWS V14.01,2013-04-05 12:31:00,
2013-04-05 08:36:00,67.8,58.1,30.00,SE,142,2.2,2.2,71,0.00,,---,0.51,VWS V14.01,2013-04-05 12:36:00,
2013-04-05 08:41:00,68.0,55.4,30.00,SSW,198,2.7,4.0,64,0.00,,---,0.51,VWS V14.01,2013-04-05 12:41:00,
2013-04-05 08:46:00,68.2,54.2,30.00,SE,125,3.6,3.6,61,0.00,,---,0.51,VWS V14.01,2013-04-05 12:46:00,
2013-04-05 08:51:00,68.5,53.7,30.00,SSE,160,0.0,2.2,59,0.00,,---,0.51,VWS V14.01,2013-04-05 12:51:00,
2013-04-05 08:56:00,68.9,55.8,30.00,ESE,117,0.0,0.0,63,0.00,,---,0.51,VWS V14.01,2013-04-05 12:56:00,
2013-04-05 09:02:00,68.9,52.6,30.00,SE,144,2.7,4.0,56,0.00,,---,0.51,VWS V14.01,2013-04-05 13:02:00,
2013-04-05 09:07:00,69.1,50.2,30.03,SE,135,0.0,6.3,51,0.00,,---,0.51,VWS V14.01,2013-04-05 13:07:00,
2013-04-05 09:12:00,69.3,50.9,30.03,SSE,157,3.6,4.0,52,0.00,,---,0.51,VWS V14.01,2013-04-05 13:12:00,
2013-04-05 09:17:00,69.4,52.1,30.03,WSW,243,2.2,4.0,54,0.00,,---,0.51,VWS V14.01,2013-04-05 13:17:00,
2013-04-05 09:23:00,69.6,54.2,30.03,SW,217,0.0,0.0,58,0.00,,---,0.51,VWS V14.01,2013-04-05 13:23:00,
2013-04-05 09:28:00,69.8,55.8,30.03,SW,219,0.0,0.0,61,0.00,,---,0.51,VWS V14.01,2013-04-05 13:28:00,
2013-04-05 09:33:00,70.0,57.3,30.03,West,259,0.0,0.0,64,0.00,,---,0.51,VWS V14.01,2013-04-05 13:33:00,
2013-04-05 09:39:00,69.6,57.3,30.06,WSW,242,0.0,2.2,65,0.00,,---,0.51,VWS V14.01,2013-04-05 13:39:00,
2013-04-05 09:44:00,69.4,57.6,30.06,West,281,0.0,0.0,66,0.00,,---,0.51,VWS V14.01,2013-04-05 13:44:00,
2013-04-05 09:49:00,69.4,59.2,30.06,WSW,241,0.0,0.0,70,0.00,,---,0.51,VWS V14.01,2013-04-05 13:49:00,
2013-04-05 09:54:00,69.3,60.6,30.09,WSW,250,5.8,5.8,74,0.00,,---,0.51,VWS V14.01,2013-04-05 13:54:00,
2013-04-05 09:59:00,68.7,59.0,30.09,WNW,295,3.1,7.2,71,0.00,,---,0.51,VWS V14.01,2013-04-05 13:59:00,
2013-04-05 10:04:00,68.7,60.5,30.09,WNW,288,4.0,4.0,75,0.00,,---,0.51,VWS V14.01,2013-04-05 14:04:00,
2013-04-05 10:09:00,68.4,59.8,30.09,NNW,330,2.7,3.6,74,0.00,,---,0.51,VWS V14.01,2013-04-05 14:09:00,
2013-04-05 10:14:00,68.4,59.8,30.09,NNW,348,2.2,2.7,74,0.00,,---,0.51,VWS V14.01,2013-04-05 14:14:00,
2013-04-05 10:20:00,68.4,59.4,30.09,NW,326,3.6,4.9,73,0.00,,---,0.51,VWS V14.01,2013-04-05 14:20:00,
2013-04-05 10:25:00,69.1,60.1,30.06,WNW,302,2.7,2.7,73,0.00,,---,0.51,VWS V14.01,2013-04-05 14:25:00,
2013-04-05 10:30:00,69.6,62.1,30.06,West,279,0.0,3.6,77,0.00,,---,0.51,VWS V14.01,2013-04-05 14:30:00,
2013-04-05 10:35:00,69.8,61.5,30.06,WNW,292,3.6,4.0,75,0.00,,---,0.51,VWS V14.01,2013-04-05 14:35:00,
2013-04-05 10:41:00,70.2,60.3,30.09,WNW,302,2.2,2.7,71,0.00,,---,0.51,VWS V14.01,2013-04-05 14:41:00,
2013-04-05 10:46:00,70.7,59.6,30.09,WNW,289,3.6,6.3,68,0.00,,---,0.51,VWS V14.01,2013-04-05 14:46:00,
2013-04-05 10:51:00,71.4,56.4,30.09,NW,314,3.1,4.0,59,0.00,,---,0.51,VWS V14.01,2013-04-05 14:51:00,
2013-04-05 10:56:00,72.1,55.1,30.09,WNW,284,4.0,4.0,55,0.00,,---,0.51,VWS V14.01,2013-04-05 14:56:00,
2013-04-05 11:01:00,72.5,51.7,30.09,WNW,299,0.0,0.0,48,0.00,,---,0.51,VWS V14.01,2013-04-05 15:01:00,
2013-04-05 11:07:00,72.7,51.9,30.09,WSW,238,3.1,4.0,48,0.00,,---,0.51,VWS V14.01,2013-04-05 15:07:00,
2013-04-05 11:12:00,73.0,52.8,30.09,NW,306,2.7,2.7,49,0.00,,---,0.51,VWS V14.01,2013-04-05 15:12:00,
2013-04-05 11:17:00,73.2,51.2,30.09,WNW,293,0.0,2.7,46,0.00,,---,0.51,VWS V14.01,2013-04-05 15:17:00,
2013-04-05 11:22:00,73.8,51.7,30.06,WSW,256,0.0,0.0,46,0.00,,---,0.51,VWS V14.01,2013-04-05 15:22:00,
2013-04-05 11:27:00,74.3,51.0,30.06,WSW,246,0.0,0.0,44,0.00,,---,0.51,VWS V14.01,2013-04-05 15:27:00,
2013-04-05 11:32:00,74.3,49.8,30.06,South,180,0.0,2.2,42,0.00,,---,0.51,VWS V14.01,2013-04-05 15:32:00,
2013-04-05 11:37:00,73.2,50.6,30.06,SSE,157,4.5,4.5,45,0.00,,---,0.51,VWS V14.01,2013-04-05 15:37:00,
2013-04-05 11:43:00,72.5,51.2,30.06,South,172,3.6,4.0,47,0.00,,---,0.51,VWS V14.01,2013-04-05 15:43:00,
2013-04-05 11:48:00,71.8,51.1,30.06,South,175,4.0,4.0,48,0.00,,---,0.51,VWS V14.01,2013-04-05 15:48:00,
2013-04-05 11:53:00,71.4,53.9,30.06,SE,144,2.7,3.1,54,0.00,,---,0.51,VWS V14.01,2013-04-05 15:53:00,
2013-04-05 11:58:00,70.9,52.4,30.06,South,178,4.0,6.7,52,0.00,,---,0.51,VWS V14.01,2013-04-05 15:58:00,
2013-04-05 12:03:00,70.7,54.7,30.06,South,185,4.0,4.0,57,0.00,,---,0.51,VWS V14.01,2013-04-05 16:03:00,
2013-04-05 12:08:00,70.7,54.2,30.06,South,175,3.1,3.1,56,0.00,,---,0.51,VWS V14.01,2013-04-05 16:08:00,
2013-04-05 12:13:00,71.1,53.1,30.06,WSW,251,3.1,4.0,53,0.00,,---,0.51,VWS V14.01,2013-04-05 16:13:00,
2013-04-05 12:19:00,72.0,52.9,30.06,SSE,150,0.0,0.0,51,0.00,,---,0.51,VWS V14.01,2013-04-05 16:19:00,
2013-04-05 12:24:00,72.7,52.4,30.06,SW,218,0.0,0.0,49,0.00,,---,0.51,VWS V14.01,2013-04-05 16:24:00,
2013-04-05 12:30:00,73.4,52.0,30.06,WSW,239,2.7,2.7,47,0.00,,---,0.51,VWS V14.01,2013-04-05 16:30:00,
2013-04-05 12:35:00,73.4,52.5,30.06,East,80,2.2,2.7,48,0.00,,---,0.51,VWS V14.01,2013-04-05 16:35:00,
2013-04-05 12:40:00,72.5,48.8,30.06,South,189,0.0,9.2,43,0.00,,---,0.51,VWS V14.01,2013-04-05 16:40:00,
2013-04-05 12:45:00,72.0,50.7,30.06,SW,215,2.2,2.7,47,0.00,,---,0.51,VWS V14.01,2013-04-05 16:45:00,
2013-04-05 12:50:00,71.8,50.5,30.06,SSW,198,0.0,0.0,47,0.00,,---,0.51,VWS V14.01,2013-04-05 16:50:00,
2013-04-05 12:56:00,71.8,51.1,30.06,SSE,165,0.0,4.0,48,0.00,,---,0.51,VWS V14.01,2013-04-05 16:56:00,
2013-04-05 13:01:00,71.8,49.9,30.06,South,169,2.7,2.7,46,0.00,,---,0.51,VWS V14.01,2013-04-05 17:01:00,
2013-04-05 13:06:00,71.1,51.0,30.03,SW,231,0.0,2.7,49,0.00,,---,0.51,VWS V14.01,2013-04-05 17:06:00,
2013-04-05 13:11:00,70.2,50.7,30.03,West,259,2.2,2.2,50,0.00,,---,0.51,VWS V14.01,2013-04-05 17:11:00,
2013-04-05 13:16:00,70.2,51.7,30.03,WSW,244,2.7,4.9,52,0.00,,---,0.51,VWS V14.01,2013-04-05 17:16:00,
2013-04-05 13:21:00,70.2,52.2,30.03,SW,235,3.6,5.4,53,0.00,,---,0.51,VWS V14.01,2013-04-05 17:21:00,
2013-04-05 13:26:00,70.2,52.2,30.03,WSW,255,3.1,7.6,53,0.00,,---,0.51,VWS V14.01,2013-04-05 17:26:00,
2013-04-05 13:32:00,70.0,52.6,30.03,SW,227,3.1,4.9,54,0.00,,---,0.51,VWS V14.01,2013-04-05 17:32:00,
2013-04-05 13:37:00,69.8,54.8,30.03,WSW,241,3.6,7.6,59,0.00,,---,0.51,VWS V14.01,2013-04-05 17:37:00,
2013-04-05 13:42:00,69.4,55.9,30.03,West,273,4.9,4.9,62,0.00,,---,0.51,VWS V14.01,2013-04-05 17:42:00,
2013-04-05 13:47:00,69.3,57.8,30.03,WNW,287,2.7,3.6,67,0.00,,---,0.51,VWS V14.01,2013-04-05 17:47:00,
2013-04-05 13:52:00,69.1,57.7,30.03,WNW,294,3.1,3.1,67,0.00,,---,0.51,VWS V14.01,2013-04-05 17:52:00,
2013-04-05 13:58:00,69.1,58.9,30.03,West,260,4.0,4.9,70,0.00,,---,0.51,VWS V14.01,2013-04-05 17:58:00,
2013-04-05 14:03:00,69.1,58.5,30.03,WNW,292,3.6,6.3,69,0.00,,---,0.51,VWS V14.01,2013-04-05 18:03:00,
2013-04-05 14:08:00,68.9,58.7,30.03,NW,312,4.5,5.4,70,0.00,,---,0.51,VWS V14.01,2013-04-05 18:08:00,
2013-04-05 14:13:00,68.5,57.6,30.03,WSW,252,5.8,5.8,68,0.00,,---,0.51,VWS V14.01,2013-04-05 18:13:00,
2013-04-05 14:18:00,68.5,57.6,30.03,West,260,0.0,0.0,68,0.00,,---,0.51,VWS V14.01,2013-04-05 18:18:00,
2013-04-05 14:23:00,68.5,57.6,30.00,SW,230,2.7,4.9,68,0.00,,---,0.51,VWS V14.01,2013-04-05 18:23:00,
2013-04-05 14:28:00,68.7,59.0,30.00,WSW,256,4.9,5.4,71,0.00,,---,0.51,VWS V14.01,2013-04-05 18:28:00,
2013-04-05 14:34:00,68.4,58.6,30.00,SW,233,2.7,4.0,71,0.00,,---,0.51,VWS V14.01,2013-04-05 18:34:00,
2013-04-05 14:39:00,68.2,59.2,30.03,WSW,243,3.6,5.4,73,0.00,,---,0.51,VWS V14.01,2013-04-05 18:39:00,
2013-04-05 14:44:00,67.8,59.6,30.03,SW,235,3.1,10.1,75,0.00,,---,0.51,VWS V14.01,2013-04-05 18:44:00,
2013-04-05 14:49:00,67.5,58.9,30.03,WSW,255,0.0,3.6,74,0.00,,---,0.51,VWS V14.01,2013-04-05 18:49:00,
2013-04-05 14:55:00,66.9,58.4,30.00,WNW,295,2.7,7.6,74,0.00,,---,0.51,VWS V14.01,2013-04-05 18:55:00,
2013-04-05 15:00:00,66.7,58.9,30.00,West,268,2.2,8.1,76,0.00,,---,0.51,VWS V14.01,2013-04-05 19:00:00,
2013-04-05 15:05:00,66.4,58.6,30.00,West,262,4.0,7.6,76,0.00,,---,0.51,VWS V14.01,2013-04-05 19:05:00,
2013-04-05 15:10:00,66.0,58.6,30.00,WSW,237,2.2,5.4,77,0.00,,---,0.51,VWS V14.01,2013-04-05 19:10:00,
2013-04-05 15:15:00,65.8,58.8,30.00,SW,217,6.3,8.3,78,0.00,,---,0.51,VWS V14.01,2013-04-05 19:15:00,
2013-04-05 15:21:00,65.7,59.0,30.03,West,263,5.4,5.8,79,0.00,,---,0.51,VWS V14.01,2013-04-05 19:21:00,
2013-04-05 15:26:00,65.7,59.7,30.03,SW,228,0.0,5.4,81,0.08,,---,0.59,VWS V14.01,2013-04-05 19:26:00,
2013-04-05 15:31:00,65.8,60.2,30.03,WSW,240,0.0,0.0,82,0.08,,---,0.59,VWS V14.01,2013-04-05 19:31:00,
2013-04-05 15:36:00,66.0,61.0,30.00,WSW,237,2.2,2.2,84,0.08,,---,0.59,VWS V14.01,2013-04-05 19:36:00,
2013-04-05 15:41:00,66.0,61.4,30.00,WSW,243,0.0,2.2,85,0.12,,---,0.63,VWS V14.01,2013-04-05 19:41:00,
2013-04-05 15:46:00,66.2,61.6,30.00,SW,225,3.6,3.6,85,0.12,,---,0.63,VWS V14.01,2013-04-05 19:46:00,
2013-04-05 15:52:00,66.4,62.1,30.00,West,273,0.0,0.0,86,0.12,,---,0.63,VWS V14.01,2013-04-05 19:52:00,
2013-04-05 15:57:00,66.2,61.9,30.00,West,267,0.0,0.0,86,0.12,,---,0.63,VWS V14.01,2013-04-05 19:57:00,
2013-04-05 16:02:00,66.0,61.7,30.00,SW,236,2.2,3.6,86,0.12,,---,0.63,VWS V14.01,2013-04-05 20:02:00,
2013-04-05 16:07:00,65.8,61.9,29.97,South,184,3.1,3.6,87,0.12,,---,0.63,VWS V14.01,2013-04-05 20:07:00,
2013-04-05 16:12:00,66.0,62.4,29.97,SSE,150,0.0,0.0,88,0.12,,---,0.63,VWS V14.01,2013-04-05 20:12:00,
2013-04-05 16:17:00,66.0,62.4,29.97,South,179,4.0,4.0,88,0.12,,---,0.63,VWS V14.01,2013-04-05 20:17:00,
2013-04-05 16:22:00,65.8,62.2,29.97,South,187,2.7,3.1,88,0.12,,---,0.63,VWS V14.01,2013-04-05 20:22:00,
2013-04-05 16:27:00,65.8,62.2,29.97,South,187,0.0,0.0,88,0.08,,---,0.67,VWS V14.01,2013-04-05 20:27:00,
2013-04-05 16:32:00,65.8,62.5,29.97,SW,226,0.0,3.6,89,0.08,,---,0.67,VWS V14.01,2013-04-05 20:32:00,
2013-04-05 16:38:00,65.8,62.8,29.97,South,179,0.0,2.7,90,0.04,,---,0.67,VWS V14.01,2013-04-05 20:38:00,
2013-04-05 16:43:00,66.0,63.3,29.97,WSW,239,7.6,7.6,91,0.04,,---,0.67,VWS V14.01,2013-04-05 20:43:00,
2013-04-05 16:48:00,66.0,63.3,29.97,SSW,211,5.4,5.4,91,0.04,,---,0.67,VWS V14.01,2013-04-05 20:48:00,
2013-04-05 16:53:00,65.8,63.1,30.00,West,266,0.0,4.0,91,0.04,,---,0.67,VWS V14.01,2013-04-05 20:53:00,
2013-04-05 16:58:00,65.8,63.1,30.00,WSW,243,0.0,2.7,91,0.04,,---,0.67,VWS V14.01,2013-04-05 20:58:00,
2013-04-05 17:04:00,65.8,63.5,30.00,WSW,255,5.4,5.4,92,0.04,,---,0.67,VWS V14.01,2013-04-05 21:04:00,
2013-04-05 17:09:00,65.8,63.5,30.00,SW,224,2.7,5.8,92,0.04,,---,0.67,VWS V14.01,2013-04-05 21:09:00,
2013-04-05 17:14:00,65.8,63.5,30.00,WSW,244,0.0,0.0,92,0.04,,---,0.67,VWS V14.01,2013-04-05 21:14:00,
2013-04-05 17:19:00,65.8,63.5,30.00,WSW,242,3.1,6.7,92,0.04,,---,0.67,VWS V14.01,2013-04-05 21:19:00,
2013-04-05 17:25:00,66.0,63.9,30.00,West,260,0.0,0.0,93,0.00,,---,0.67,VWS V14.01,2013-04-05 21:25:00,
2013-04-05 17:30:00,66.0,63.9,30.00,WSW,247,0.0,0.0,93,0.00,,---,0.67,VWS V14.01,2013-04-05 21:30:00,
2013-04-05 17:35:00,66.0,63.9,30.00,SW,233,0.0,3.1,93,0.00,,---,0.67,VWS V14.01,2013-04-05 21:35:00,
2013-04-05 17:40:00,66.0,63.9,30.00,SSW,206,3.1,4.0,93,0.00,,---,0.67,VWS V14.01,2013-04-05 21:40:00,
2013-04-05 17:45:00,66.0,63.9,30.00,West,259,2.2,3.1,93,0.00,,---,0.67,VWS V14.01,2013-04-05 21:45:00,
2013-04-05 17:50:00,66.0,63.9,30.00,East,98,0.0,3.1,93,0.00,,---,0.67,VWS V14.01,2013-04-05 21:50:00,
2013-04-05 17:55:00,66.0,63.6,30.00,SW,234,0.0,0.0,92,0.00,,---,0.67,VWS V14.01,2013-04-05 21:55:00,
2013-04-05 18:00:00,66.2,63.8,30.00,West,260,0.0,4.9,92,0.00,,---,0.67,VWS V14.01,2013-04-05 22:00:00,
2013-04-05 18:06:00,66.2,63.5,29.97,SW,230,0.0,5.4,91,0.00,,---,0.67,VWS V14.01,2013-04-05 22:06:00,
2013-04-05 18:11:00,66.4,63.7,29.97,WSW,256,0.0,0.0,91,0.00,,---,0.67,VWS V14.01,2013-04-05 22:11:00,
2013-04-05 18:16:00,66.6,63.9,29.97,WSW,239,0.0,0.0,91,0.00,,---,0.67,VWS V14.01,2013-04-05 22:16:00,
2013-04-05 18:21:00,66.4,63.4,29.97,WSW,253,0.0,0.0,90,0.00,,---,0.67,VWS V14.01,2013-04-05 22:21:00,
2013-04-05 18:26:00,66.4,63.4,29.97,WSW,250,0.0,2.7,90,0.00,,---,0.67,VWS V14.01,2013-04-05 22:26:00,
2013-04-05 18:31:00,66.4,63.4,29.97,NW,314,0.0,0.0,90,0.00,,---,0.67,VWS V14.01,2013-04-05 22:31:00,
2013-04-05 18:37:00,66.4,63.4,29.97,West,281,0.0,0.0,90,0.00,,---,0.67,VWS V14.01,2013-04-05 22:37:00,
2013-04-05 18:42:00,66.4,63.4,29.97,WSW,243,0.0,0.0,90,0.00,,---,0.67,VWS V14.01,2013-04-05 22:42:00,
2013-04-05 18:47:00,66.4,63.0,29.97,WSW,244,0.0,0.0,89,0.00,,---,0.67,VWS V14.01,2013-04-05 22:47:00,
2013-04-05 18:53:00,66.7,63.7,29.97,SSW,213,0.0,0.0,90,0.00,,---,0.67,VWS V14.01,2013-04-05 22:53:00,
2013-04-05 18:58:00,66.7,63.4,29.97,SW,231,0.0,2.2,89,0.00,,---,0.67,VWS V14.01,2013-04-05 22:58:00,
2013-04-05 19:03:00,66.6,62.9,29.97,SW,234,0.0,0.0,88,0.00,,---,0.67,VWS V14.01,2013-04-05 23:03:00,
2013-04-05 19:08:00,66.6,62.9,29.97,SW,234,0.0,0.0,88,0.00,,---,0.67,VWS V14.01,2013-04-05 23:08:00,
2013-04-05 19:13:00,66.6,62.6,29.97,SSW,207,2.7,3.1,87,0.00,,---,0.67,VWS V14.01,2013-04-05 23:13:00,
2013-04-05 19:18:00,66.4,62.1,29.97,WSW,248,0.0,4.0,86,0.00,,---,0.67,VWS V14.01,2013-04-05 23:18:00,
2013-04-05 19:23:00,66.2,61.6,29.97,West,260,2.7,4.9,85,0.00,,---,0.67,VWS V14.01,2013-04-05 23:23:00,
2013-04-05 19:28:00,66.2,61.6,29.97,West,280,0.0,2.2,85,0.00,,---,0.67,VWS V14.01,2013-04-05 23:28:00,
2013-04-05 19:34:00,66.0,61.4,29.97,West,260,0.0,0.0,85,0.00,,---,0.67,VWS V14.01,2013-04-05 23:34:00,
2013-04-05 19:40:00,65.8,61.2,29.97,West,270,0.0,0.0,85,0.00,,---,0.67,VWS V14.01,2013-04-05 23:40:00,
2013-04-05 19:45:00,65.7,61.0,29.97,SW,232,5.8,5.8,85,0.00,,---,0.67,VWS V14.01,2013-04-05 23:45:00,
2013-04-05 19:50:00,65.3,60.7,29.97,WNW,288,3.6,3.6,85,0.00,,---,0.67,VWS V14.01,2013-04-05 23:50:00,
2013-04-05 19:55:00,64.9,60.7,29.97,WSW,257,3.1,4.0,86,0.00,,---,0.67,VWS V14.01,2013-04-05 23:55:00,
2013-04-05 20:00:00,64.8,60.8,29.97,SW,225,3.6,4.0,87,0.00,,---,0.67,VWS V14.01,2013-04-06 00:00:00,
2013-04-05 20:06:00,64.6,60.6,29.97,WSW,244,2.7,2.7,87,0.00,,---,0.67,VWS V14.01,2013-04-06 00:06:00,
2013-04-05 20:11:00,64.4,60.8,29.97,WSW,254,3.1,3.6,88,0.00,,---,0.67,VWS V14.01,2013-04-06 00:11:00,
2013-04-05 20:16:00,64.4,61.1,29.97,WSW,250,2.7,5.4,89,0.00,,---,0.67,VWS V14.01,2013-04-06 00:16:00,
2013-04-05 20:21:00,64.0,60.7,29.97,WSW,257,3.6,3.6,89,0.00,,---,0.67,VWS V14.01,2013-04-06 00:21:00,
2013-04-05 20:27:00,64.2,61.2,29.97,West,260,0.0,2.7,90,0.00,,---,0.67,VWS V14.01,2013-04-06 00:27:00,
2013-04-05 20:32:00,64.0,61.4,29.97,SW,236,2.7,4.0,91,0.00,,---,0.67,VWS V14.01,2013-04-06 00:32:00,
2013-04-05 20:37:00,63.9,61.2,30.00,WSW,245,0.0,3.6,91,0.00,,---,0.67,VWS V14.01,2013-04-06 00:37:00,
2013-04-05 20:42:00,63.9,61.2,30.00,WSW,249,3.6,3.6,91,0.00,,---,0.67,VWS V14.01,2013-04-06 00:42:00,
2013-04-05 20:47:00,63.9,61.5,30.00,WSW,250,0.0,0.0,92,0.00,,---,0.67,VWS V14.01,2013-04-06 00:47:00,
2013-04-05 20:52:00,63.5,61.1,30.00,WSW,251,3.1,3.1,92,0.00,,---,0.67,VWS V14.01,2013-04-06 00:52:00,
2013-04-05 20:58:00,63.5,61.1,30.00,WSW,251,0.0,0.0,92,0.00,,---,0.67,VWS V14.01,2013-04-06 00:58:00,
2013-04-05 21:03:00,63.5,61.1,30.00,WSW,240,0.0,0.0,92,0.00,,---,0.67,VWS V14.01,2013-04-06 01:03:00,
2013-04-05 21:08:00,63.7,61.6,30.00,West,268,2.2,2.7,93,0.00,,---,0.67,VWS V14.01,2013-04-06 01:08:00,
2013-04-05 21:14:00,63.9,61.8,30.00,WSW,244,2.7,2.7,93,0.00,,---,0.67,VWS V14.01,2013-04-06 01:14:00,
2013-04-05 21:19:00,64.0,62.0,30.00,WSW,240,2.2,3.6,93,0.00,,---,0.67,VWS V14.01,2013-04-06 01:19:00,
2013-04-05 21:24:00,64.0,62.0,30.00,WSW,241,2.7,2.7,93,0.00,,---,0.67,VWS V14.01,2013-04-06 01:24:00,
2013-04-05 21:29:00,64.0,62.0,30.00,WSW,243,0.0,0.0,93,0.00,,---,0.67,VWS V14.01,2013-04-06 01:29:00,
2013-04-05 21:34:00,63.9,61.8,30.00,WSW,242,2.7,4.0,93,0.00,,---,0.67,VWS V14.01,2013-04-06 01:34:00,
2013-04-05 21:39:00,63.9,61.8,30.03,WSW,246,0.0,0.0,93,0.00,,---,0.67,VWS V14.01,2013-04-06 01:39:00,
2013-04-05 21:45:00,63.9,61.8,30.03,WSW,256,3.1,4.9,93,0.00,,---,0.67,VWS V14.01,2013-04-06 01:45:00,
2013-04-05 21:50:00,63.7,61.6,30.03,WSW,252,0.0,5.4,93,0.00,,---,0.67,VWS V14.01,2013-04-06 01:50:00,
2013-04-05 21:55:00,63.7,61.6,30.03,WSW,253,2.2,2.7,93,0.00,,---,0.67,VWS V14.01,2013-04-06 01:55:00,
2013-04-05 22:00:00,63.5,61.4,30.03,WSW,246,0.0,0.0,93,0.00,,---,0.67,VWS V14.01,2013-04-06 02:00:00,
2013-04-05 22:06:00,63.3,61.3,30.03,WSW,246,0.0,0.0,93,0.00,,---,0.67,VWS V14.01,2013-04-06 02:06:00,
2013-04-05 22:11:00,63.3,61.3,30.03,WSW,245,0.0,3.1,93,0.00,,---,0.67,VWS V14.01,2013-04-06 02:11:00,
2013-04-05 22:16:00,63.5,61.4,30.03,WSW,248,2.2,5.4,93,0.00,,---,0.67,VWS V14.01,2013-04-06 02:16:00,
2013-04-05 22:21:00,63.5,61.4,30.03,WSW,256,0.0,2.7,93,0.00,,---,0.67,VWS V14.01,2013-04-06 02:21:00,
2013-04-05 22:26:00,63.5,61.8,30.03,WSW,240,0.0,3.6,94,0.00,,---,0.67,VWS V14.01,2013-04-06 02:26:00,
2013-04-05 22:31:00,63.9,62.1,30.03,WSW,250,2.2,2.7,94,0.00,,---,0.67,VWS V14.01,2013-04-06 02:31:00,
2013-04-05 22:36:00,64.4,62.6,30.03,WSW,244,0.0,0.0,94,0.00,,---,0.67,VWS V14.01,2013-04-06 02:36:00,
2013-04-05 22:41:00,64.6,62.8,30.03,WSW,243,0.0,0.0,94,0.00,,---,0.67,VWS V14.01,2013-04-06 02:41:00,
2013-04-05 22:46:00,64.9,63.2,30.03,WSW,246,0.0,0.0,94,0.00,,---,0.67,VWS V14.01,2013-04-06 02:46:00,
2013-04-05 22:52:00,65.1,63.3,30.06,West,259,3.6,3.6,94,0.00,,---,0.67,VWS V14.01,2013-04-06 02:52:00,
2013-04-05 22:57:00,65.3,63.8,30.06,WSW,258,2.2,3.1,95,0.00,,---,0.67,VWS V14.01,2013-04-06 02:57:00,
2013-04-05 23:02:00,65.5,64.0,30.06,SW,230,4.9,4.9,95,0.00,,---,0.67,VWS V14.01,2013-04-06 03:02:00,
2013-04-05 23:07:00,65.5,64.0,30.06,WSW,252,2.7,2.7,95,0.00,,---,0.67,VWS V14.01,2013-04-06 03:07:00,
2013-04-05 23:12:00,65.5,64.0,30.06,West,274,2.2,3.1,95,0.00,,---,0.67,VWS V14.01,2013-04-06 03:12:00,
2013-04-05 23:18:00,65.3,63.8,30.06,WSW,257,4.0,4.0,95,0.00,,---,0.67,VWS V14.01,2013-04-06 03:18:00,
2013-04-05 23:23:00,64.9,63.2,30.06,West,279,3.1,4.0,94,0.00,,---,0.67,VWS V14.01,2013-04-06 03:23:00,
2013-04-05 23:28:00,64.4,62.6,30.06,WNW,284,2.7,3.1,94,0.00,,---,0.67,VWS V14.01,2013-04-06 03:28:00,
2013-04-05 23:33:00,64.6,62.8,30.06,West,270,2.7,3.6,94,0.00,,---,0.67,VWS V14.01,2013-04-06 03:33:00,
2013-04-05 23:39:00,64.6,62.8,30.06,WNW,286,3.1,3.1,94,0.00,,---,0.67,VWS V14.01,2013-04-06 03:39:00,
2013-04-05 23:44:00,64.8,63.3,30.06,WNW,301,0.0,3.6,95,0.00,,---,0.67,VWS V14.01,2013-04-06 03:44:00,
2013-04-05 23:49:00,64.8,63.3,30.06,West,261,3.1,3.1,95,0.00,,---,0.67,VWS V14.01,2013-04-06 03:49:00,
2013-04-05 23:54:00,64.4,62.9,30.06,WSW,246,6.3,6.7,95,0.00,,---,0.67,VWS V14.01,2013-04-06 03:54:00,
2013-04-05 23:59:00,63.9,62.4,30.06,West,275,3.6,3.6,95,0.00,,---,0.67,VWS V14.01,2013-04-06 03:59:00,